Location: *
(43.4667°N, 11.6833°E)
Time: 09:33:12
(UTC+00:00)

DELTA 2 R/B (1) - Pass Details

Date: 19 July 2019
Orbit: 791 x 802 km, 39.6° (Epoch: 25 August)

Event Time Altitude Azimuth Distance (km) Brightness Sun altitude
Rises 21:58:30 0° 264° (W) 3,296 7.0 -23.1°
Reaches altitude 10° 22:01:01 10° 261° (W) 2,364 6.1 -23.3°
Enters shadow 22:06:22 59° 189° (S) 917 3.5 -23.6°
